Weather in Balagansk

Russia / Irkutsk Oblast     54°00′22″N   103°03′27″E
temp.,
°C
wind,
m/s
gust,
m/s
humid.,
%
clouds,
%
prec.,
mm/h
press.,
hPa
HPBL,
m
4 march, thu
thu423:00−24nnw339082 0.0 102926
02:00−27n229541 0.0 103120
05:00−30n22980 0.0 103419
08:00−31n12970 0.0 103719
11:00−25ene11870 0.0 1037157
14:00−20se11780 0.0 1036257
17:00−19sse227817 0.0 1035199
20:00−25se22789 0.0 103720
5 march, fri
fri523:00−25se22840 0.0 103720
02:00−23se228626 0.0 103724
05:00−24ese229075 0.0 103521
08:00−24ese228855 0.0 103321
11:00−18se388473 0.0 1030301
14:00−12sse598587 0.0 1026494
17:00−10sse5108782 0.0 1023464
20:00−11sse4118991 0.0 1024296
6 march, sat
sat623:00−13sse41189100 0.0 1024290
02:00−14s4991100 0.0 1025296
05:00−17sse229593 0.0 102624
08:00−16sse239596 0.0 102858
11:00−13sse3593100 0.0 1026199
14:00−10sse459499 0.0 1024246
17:00−7sse369498 0.0 1021228
20:00−8sse229499 0.0 102222
7 march, sun
sun723:00−9se129693 0.0 102221
02:00−10e119596 0.0 102121
05:00−10se229399 0.0 102021
08:00−12sse229276 0.0 102121
11:00−8sse34862 0.0 1019204
14:00−5sse348723 0.0 1018240
17:00−4se349194 0.0 1017166
20:00−8ene119381 0.0 101921
8 march, mon
mon823:00−8sse119362 0.0 102121
02:00−7ese119181 0.0 102221
05:00−9sse129325 0.0 102221
08:00−9se229345 0.0 102221
11:00−5sse369295 0.0 1020259
14:00−3sse359391 0.0 1018274
17:00−2sse249384 0.0 1017230
20:00−6sse229455 0.0 101821